This is the latest recevied weather packets stored in our database for station/object OK1FET-4. If no packets are shown the sender has not sent any weather packets the latest 1 day(s).
| Time | Temp. | Humidity | Pressure | Rain* | Wind** | Luminosity | Snow |
|---|---|---|---|---|---|---|---|
| 1778001385 | 19.44° C | 54% | 1004.9 hPa | - | 1.34 m/s, 135° | - | - |
| 1778001385 | 19.44° C | 54% | 1004.9 hPa | - | 1.34 m/s, 135° | - | - |
| 1778001385 | 19.44° C | 54% | 1004.9 hPa | - | 1.34 m/s, 135° | - | - |
| 1778001084 | 20° C | 54% | 1004.9 hPa | - | 2.24 m/s, 128° | - | - |
| 1778001084 | 20° C | 54% | 1004.9 hPa | - | 2.24 m/s, 128° | - | - |
| 1778001084 | 20° C | 54% | 1004.9 hPa | - | 2.24 m/s, 128° | - | - |
| 1778000974 | 20° C | 53% | 1005 hPa | - | 1.79 m/s, 138° | - | - |
| 1778000974 | 20° C | 53% | 1004.9 hPa | - | 1.79 m/s, 137° | - | - |
| 1778000974 | 20.56° C | 52% | 1005 hPa | - | 1.34 m/s, 130° | - | - |
| 1778000974 | 20.56° C | 51% | 1005 hPa | - | 1.79 m/s, 158° | - | - |
| 1778000974 | 20.56° C | 51% | 1005 hPa | - | 2.24 m/s, 137° | - | - |
| 1778000974 | 21.11° C | 50% | 1005.1 hPa | - | 2.68 m/s, 125° | - | - |
| 1778000783 | 20° C | 53% | 1005 hPa | - | 1.79 m/s, 138° | - | - |
| 1778000783 | 20° C | 53% | 1005 hPa | - | 1.79 m/s, 138° | - | - |
| 1778000783 | 20° C | 53% | 1005 hPa | - | 1.79 m/s, 138° | - | - |
| 1778000482 | 20° C | 53% | 1004.9 hPa | - | 1.79 m/s, 137° | - | - |
| 1778000482 | 20° C | 53% | 1004.9 hPa | - | 1.79 m/s, 137° | - | - |
| 1778000482 | 20° C | 53% | 1004.9 hPa | - | 1.79 m/s, 137° | - | - |
| 1778000181 | 20.56° C | 52% | 1005 hPa | - | 1.34 m/s, 130° | - | - |
| 1778000181 | 20.56° C | 52% | 1005 hPa | - | 1.34 m/s, 130° | - | - |
| 1777999880 | 20.56° C | 52% | 1005 hPa | - | 1.79 m/s, 125° | - | - |
| 1777999880 | 20.56° C | 52% | 1005 hPa | - | 1.79 m/s, 125° | - | - |
| 1777999880 | 20.56° C | 52% | 1005 hPa | - | 1.79 m/s, 125° | - | - |
| 1777999579 | 20.56° C | 52% | 1005 hPa | - | 2.24 m/s, 138° | - | - |
| 1777999579 | 20.56° C | 52% | 1005 hPa | - | 2.24 m/s, 138° | - | - |
* Rain since midnight (hover to see other rain measurements)
** Current wind speed in m/s (hover to see current wind gust speed)